Location: Anciles
(42.5833°N, 0.5167°E)
Time: 17:12:59
(UTC+00:00)

CSL-04 Rocket - Pass Details

Date: 10 December 2019
Orbit: 807 x 859 km, 99.0° (Epoch: 21 January)

Event Time Altitude Azimuth Distance (km) Brightness Sun altitude
Rises 18:03:02 0° 151° (SSE) 3,311 6.7 -17.5°
Reaches altitude 10° 18:05:24 10° 146° (SSE) 2,383 5.9 -17.9°
Maximum altitude 18:10:30 54° 71° (ENE) 977 3.6 -18.8°
Drops below altitude 10° 18:15:40 10° 355° (N) 2,407 6.0 -19.7°
Sets 18:18:03 0° 351° (N) 3,347 6.8 -20.1°
